Location: Unspecified
(0.0000°N, 0.0000°E)
Time: 02:32:50
(UTC+00:00)

PAYLOAD D - Pass Details

Date: 10 June 2023
Orbit: 1411 x 1417 km, 82.5° (Epoch: 01 October)

Event Time Altitude Azimuth Distance (km) Brightness Sun altitude
Rises 19:43:13 0° 195° (SSW) 4,482 10.4 -23.7°
Reaches altitude 10° 19:46:09 10° 200° (SSW) 3,504 9.8 -24.4°
Maximum altitude 19:54:07 50° 273° (W) 1,745 8.6 -26.2°
Drops below altitude 10° 20:02:06 10° 346° (NNW) 3,495 10.3 -28.0°
Sets 20:05:03 0° 352° (N) 4,470 10.9 -28.6°
